Showing default

YAOGAN-43 02F, 60950

Orbit data source: Space-Track

YAOGAN-43 02F, 60950 is a payload satellite owned by PLA GAD (CN) in LEO that was launched on Tue, 03 Sep 2024 UTC via a CHANG ZHENG 4B launch vehicle from the Xichang Space Center, China (XSC). Payload-class satellites include a variety of spacecraft equipped with specific instruments for various scientific and technological missions. These include communications satellites like Starlink; space stations such as the ISS; scientific satellites like the Hubble; Earth observation satellites from companies like Planet Labs, Umbra, and HawkEye 360; GPS; miniature CubeSats for education and research; and military/defense satellites.

Loading next visibility...
Identifier
60950, 2024-156F
Orbit
LEO
Last TLE update
2 hours ago
Origin
Manufacturer
SAST
Mission
Operational Defense Communications
Bus & Motor
Unknown
Mass
~300 kg wet, ~300 kg dry
Launch date (UTC)
2024-09-03 (8 months ago)
Launch vehicle
CHANG ZHENG 4B
Launch site
Xichang Space Center, China (XSC)
Object type
Payload
Rocket body
Debris
Shape & HBR
Box + 2 Pan, 5 m
Radar Cross Section
11.063 m², Large (>1 m²)

Expand to show TLE details & history

TLE from 2 hours ago
0 YAOGAN-43 02F
1 60950U 24156F   25129.25272389  .00012380  00000-0  51138-3 0  9990
2 60950  34.9930 218.4060 0001149 178.7249 181.3469 15.23209226 37828
Epoch: 2025-05-09T06:03Z
Definitive object data (Epoch: 2025-05-09T06:03:55.344Z)
Latitude
0.00002°
Longitude
-99.8861°
Altitude
495.864 km
Speed
7.619 km/s
True Right ascension
14h 33m 37s
True Declination
0° 00' 00"
Sunlit
Object was in full shadow at TLE epoch
Visualization TLE readout
Latitude
-7.99687°
Longitude
90.99185°
Altitude
495.685 km
Speed
7.619 km/s
Apparent Right ascension
03h 51m 01s
Apparent Declination
-23° 32' 11"
Sunlit
Object is in daylight
Visualization observer readout
Local Sidereal Time
16:38:17
Azimuth
34.855° NE
Elevation
-70.824°
Doppler factor
1
Orbital elements
Apogee altitude
500.21 km
Perigee altitude
498.629 km
Semi-major axis
6,877.557 km
Eccentricity
0.0001149
Inclination
34.993°
RAAN
218.406°
Arg. of periapsis
178.7249°
True anomaly
181.34659°
Mean anomaly
181.3469°
Eccentric anomaly
181.34675°
Mean motion
3.80533 °/min
BSTAR
0.00051138
Orbital period
94.6 mins
Loading maneuver chart data...
Loading SW <> Apogee altitude chart data...
Loading historical data...
Loading historical data...
Loading historical data...
Loading historical data...
Loading historical data...
Loading historical data...
Loading historical data...

YAOGAN-43 02F Visibility forecast

Observer location: undefined°, undefined°

Span
Click to sort rows by Start time (UTC) header in descending order
Start Az.
Max El. time (UTC)
Max El. Az.
Max El.
End time (UTC)
End Az.
5 mins2025-05-09 11:05:06.973Z218.396° SW2025-05-09 11:07:06.973Z167.428° S27.909°2025-05-09 11:10:06.973Z108.124° ESE
5 mins2025-05-09 12:44:06.973Z244.246° WSW2025-05-09 12:46:06.973Z200.796° SSW30.619°2025-05-09 12:49:06.973Z123.014° SE
4 mins2025-05-09 14:24:06.973Z235.163° WSW2025-05-09 14:26:06.973Z194.039° SSW19.698°2025-05-09 14:28:06.973Z157.059° SSE
|